Baku airport (UBBB)

baku-airport

Baku International Airport

Heydar Aliyev International Airport is the main international airport in Azerbaijan located 20 km (12 mi) northeast of the capital Baku. The airport is the home of Azerbaijan Airlines, the national flag carrier. It is the busiest airport in Azerbaijan and of the Caucasus.

ICAO: UBBB, IATA: GYD

Charts: Jeppesen

Sceneries: freeware demos w. reduced resolution

 fs9     fsx     Prepar

payware: http://www.drzewiecki-design.net/

METAR:

UBBB 131400Z 35008KT 9999 SCT032 BKN200 13/10 Q1025 R88/CLRD// NOSIG

TAF TAF UBBB 131116Z 1312/1412 34014KT 9999 BKN023 BKN100 TX15/1312Z TN10/1402Z TEMPO 1312/1320 SCT012 TEMPO 1320/1406 3000 -RA BR BKN007 OVC017 BECMG 1406/1408 01016G26KT